Location: ?ejeti?ky
(50.4060°N, 14.9016°E)
Time: 23:15:33
(UTC+00:00)

STARLINK-1267 - Pass Details

Date: 07 June 2020
Orbit: 548 x 551 km, 53.0° (Epoch: 05 July)

Event Time Altitude Azimuth Distance (km) Brightness Sun altitude
Exits shadow 23:45:26 32° 178° (S) 953 4.3 -16.1°
Drops below altitude 10° 23:50:17 10° 77° (ENE) 1,819 6.6 -16.0°
Enters shadow 00:49:28 -65° 249° (WSW) 12,115 10.3 -12.9°
Maximum altitude 01:25:47 76° 344° (NNW) 568 3.8 -10.0°
